Weather reports worldwide

Advertisment
Cherbourg, France (7024): temperature & dewpoint: 16.02.2019 22:00:00 - 22.02.2019 22:00:00 (CET)Cherbourg, France (7024): temperature 5cm: 16.02.2019 22:00:00 - 22.02.2019 22:00:00 (CET)Cherbourg, France (7024): temperature -20cm & temperature -100cm: 16.02.2019 22:00:00 - 22.02.2019 22:00:00 (CET)Cherbourg, France (7024): wind speed & gusts: 16.02.2019 22:00:00 - 22.02.2019 22:00:00 (CET)Cherbourg, France (7024): wind direction: 16.02.2019 22:00:00 - 22.02.2019 22:00:00 (CET)Cherbourg, France (7024): reduced air pressure: 16.02.2019 22:00:00 - 22.02.2019 22:00:00 (CET)Cherbourg, France (7024): visibility: 16.02.2019 22:00:00 - 22.02.2019 22:00:00 (CET)Cherbourg, France (7024): sunshine duration: 16.02.2019 22:00:00 - 22.02.2019 22:00:00 (CET)Cherbourg, France (7024): precipitation: 16.02.2019 22:00:00 - 22.02.2019 22:00:00 (CET)
Date & Time tt [°C] td [°C] tt 5cm [°C] tt -20cm [°C] tt -100cm [°C] ff [km/h] ff [kn] fx [km/h] fx [kn] dd ppp [hPa] vv [km] sd [min] rr [mm]
22.02.2019 22:00:00 8,5 5,4 6,9 7,9 7,9 14 7 21 12 SE 1033,9 8 0 0,0
22.02.2019 21:00:00 8,2 5,3 7,0 7,9 7,9 14 8 23 12 SE 1034,2 8 0 0,0
22.02.2019 20:00:00 8,2 5,5 7,1 7,9 7,9 14 8 24 13 SE 1034,3 8 0 0,0
22.02.2019 19:00:00 7,9 4,5 6,9 7,9 7,8 16 9 25 14 SE 1033,9 8 0 0,0
22.02.2019 18:00:00 8,6 4,2 8,8 7,8 7,8 16 8 24 13 ESE 1033,6 16 60 0,0
22.02.2019 17:00:00 11,9 7,2 13,8 7,6 7,8 10 6 15 8 E 1033,7 11 60 0,0
22.02.2019 16:00:00 13,8 8,4 16,9 7,5 7,9 10 6 15 8 E 1033,6 10 60 0,0
22.02.2019 15:00:00 15,2 8,0 18,8 7,3 7,8 10 5 15 8 E 1033,7 20 60 0,0
22.02.2019 14:00:00 15,1 6,9 18,3 7,2 7,9 7 4 15 8 S 1034,2 20 60 0,0
22.02.2019 13:00:00 13,6 7,6 15,7 7,1 7,8 9 5 17 9 SE 1034,1 19 60 0,0
22.02.2019 12:00:00 12,0 4,2 11,5 7,0 7,8 9 5 14 8 SE 1034,5 19 60 0,0
22.02.2019 11:00:00 8,6 6,2 7,2 7,1 7,8 10 6 14 8 SE 1034,9 9 58 0,0
22.02.2019 10:00:00 6,1 6,1 4,3 7,1 7,8 11 6 24 13 SSE 1034,7 0,1 0 0,0
22.02.2019 09:00:00 4,0 4,0 3,9 7,1 7,8 18 10 27 15 SSE 1034,1 0,1 0 0,0
22.02.2019 08:00:00 4,4 4,4 2,8 7,2 7,9 13 7 23 12 SSE 1033,5 0,4 0 0,0
22.02.2019 07:00:00 3,8 3,8 2,6 7,2 7,8 14 8 21 11 SSE 1033,1 0,4 0 0,0
22.02.2019 06:00:00 4,8 4,8 3,0 7,3 7,8 14 7 26 14 SSE 1032,6 1,3 0 0,0
22.02.2019 05:00:00 4,8 4,8 2,1 7,3 7,8 20 11 26 14 SSE 1032,6 1,9 0 0,0
22.02.2019 04:00:00 4,3 4,3 2,8 7,4 7,8 13 7 21 12 S 1032,8 1,6 0 0,0
22.02.2019 03:00:00 4,7 4,6 2,2 7,5 7,8 13 7 18 10 S 1032,8 2,2 0 0,0
22.02.2019 02:00:00 4,5 4,2 2,7 7,5 7,8 11 6 19 10 SSE 1032,7 2,8 0 0,0
22.02.2019 01:00:00 4,9 4,5 2,3 7,6 7,8 13 7 18 10 S 1032,3 2,9 0 0,0
22.02.2019 00:00:00 4,7 4,1 3,1 7,6 7,8 13 7 16 9 S 1032,1 3,0 0 0,0
21.02.2019 23:00:00 4,6 4,3 2,8 7,7 7,8 12 6 17 9 S 1032,1 2,3 0 0,0
21.02.2019 22:00:00 5,6 5,3 3,7 7,7 7,8 11 6 18 10 S 1031,7 3,1 0 0,0
21.02.2019 21:00:00 6,2 5,6 4,8 7,7 7,8 11 6 15 8 S 1031,1 5 0 0,0
21.02.2019 20:00:00 6,6 5,5 4,3 7,7 7,8 10 6 14 7 SSE 1030,8 8 0 0,0
21.02.2019 19:00:00 7,2 5,8 4,8 7,6 7,8 7 4 16 9 S 1030,0 9 0 0,0
21.02.2019 18:00:00 10,0 6,7 11,3 7,5 7,8 10 5 13 7 S 1029,3 10 53 0,0
21.02.2019 17:00:00 12,3 7,6 16,0 7,4 7,8 8 4 14 8 S 1028,9 18 60 0,0
21.02.2019 16:00:00 12,7 8,0 17,2 7,3 7,8 8 4 14 7 SSW 1028,6 19 60 0,0
21.02.2019 15:00:00 12,2 7,5 16,0 7,2 7,8 8 4 22 12 SSW 1028,3 18 60 0,0
21.02.2019 14:00:00 11,3 8,2 12,4 7,1 7,8 13 7 21 11 SSW 1028,3 14 47 0,0
21.02.2019 13:00:00 9,2 7,6 11,2 7,1 7,8 18 10 26 14 SSW 1028,2 11 40 0,0
21.02.2019 12:00:00 8,0 7,7 8,8 7,0 7,8 17 9 29 16 SSW 1028,4 4,4 10 0,0
21.02.2019 11:00:00 7,1 7,1 6,5 7,0 7,8 17 9 27 14 SSW 1028,0 2,1 0 0,0
21.02.2019 10:00:00 6,2 6,2 5,8 7,0 7,8 16 9 24 13 S 1027,9 0,2 0 0,0
21.02.2019 09:00:00 5,9 5,9 5,8 7,0 7,8 16 9 27 15 S 1027,1 0,3 0 0,0
21.02.2019 08:00:00 6,1 6,1 5,3 7,1 7,8 20 11 28 15 SSW 1026,5 0,3 0 0,0
21.02.2019 07:00:00 5,7 5,7 4,4 7,1 7,8 17 9 27 14 S 1026,2 1,9 0 0,0
21.02.2019 06:00:00 5,8 5,8 5,6 7,1 7,8 17 9 26 14 SSW 1025,6 0,4 0 0,0
21.02.2019 05:00:00 6,1 6,1 3,9 7,2 7,8 18 10 23 12 S 1025,1 0,5 0 0,0
21.02.2019 04:00:00 5,4 5,4 2,9 7,2 7,8 15 8 21 11 S 1025,1 2,6 0 0,0
21.02.2019 03:00:00 5,4 4,7 3,9 7,2 7,8 10 6 19 11 SSW 1025,4 5 0 0,0
21.02.2019 02:00:00 6,5 6,1 5,5 7,3 7,8 14 7 22 12 SSW 1025,0 4,4 0 0,0
21.02.2019 01:00:00 6,3 5,7 4,6 7,3 7,8 10 5 19 11 SSW 1025,1 4,8 0 0,0
21.02.2019 00:00:00 6,4 5,7 4,3 7,4 7,8 16 9 22 12 SSW 1024,5 6 0 0,0
20.02.2019 23:00:00 5,7 5,0 3,5 7,4 7,8 11 6 18 10 SSW 1024,3 6 0 0,0
20.02.2019 22:00:00 5,4 4,8 2,0 7,5 7,8 13 7 16 8 S 1024,1 6 0 0,0
20.02.2019 21:00:00 5,2 4,6 2,0 7,5 7,8 11 6 14 8 S 1023,9 6 0 0,0
20.02.2019 20:00:00 6,0 4,6 3,8 7,4 7,8 10 5 16 9 S 1023,3 9 0 0,0
20.02.2019 19:00:00 7,2 5,2 4,8 7,4 7,8 10 6 25 14 S 1022,7 14 0 0,0
20.02.2019 18:00:00 9,6 5,8 10,6 7,4 7,8 17 9 26 14 S 1022,3 30 56 0,0
20.02.2019 17:00:00 11,2 5,5 13,4 7,3 7,8 18 10 32 17 SW 1022,3 48 60 0,0
20.02.2019 16:00:00 11,7 5,6 11,7 7,2 7,8 20 11 38 20 SW 1022,1 49 40 0,0
20.02.2019 15:00:00 11,0 4,7 11,8 7,1 7,8 19 11 37 20 SW 1022,3 60 9 0,0
20.02.2019 14:00:00 11,5 3,8 11,3 7,0 7,8 22 12 37 20 S 1022,4 19 35 0,0
20.02.2019 13:00:00 10,7 4,8 14,0 6,9 7,8 19 10 29 15 S 1022,6 20 60 0,0
20.02.2019 12:00:00 9,9 4,7 12,3 6,9 7,8 18 10 26 14 S 1022,5 19 60 0,0
20.02.2019 11:00:00 7,5 5,5 6,2 6,9 7,8 18 10 27 14 S 1022,1 16 60 0,0
20.02.2019 10:00:00 4,8 4,5 4,2 6,9 7,8 18 10 34 18 S 1022,0 3,5 8 0,0
20.02.2019 09:00:00 4,3 4,2 3,8 7,0 7,8 22 12 33 18 S 1021,5 3,4 0 0,0
20.02.2019 08:00:00 4,2 4,1 3,6 7,0 7,8 23 12 35 19 S 1021,0 3,2 0 0,0
20.02.2019 07:00:00 4,7 4,7 4,1 7,0 7,8 22 12 36 19 S 1020,6 0,7 0 0,0
20.02.2019 06:00:00 4,5 4,4 3,0 7,1 7,8 21 11 34 19 S 1020,6 3,6 0 0,0
20.02.2019 05:00:00 3,9 3,8 3,0 7,1 7,8 16 9 26 14 SSW 1020,6 3,4 0 0,0
20.02.2019 04:00:00 4,1 4,0 3,3 7,1 7,8 17 9 29 16 S 1020,7 3,0 0 0,0
20.02.2019 03:00:00 4,9 4,8 4,1 7,2 7,8 19 10 30 16 S 1021,2 2,9 0 0,0
20.02.2019 02:00:00 4,8 4,7 3,7 7,2 7,8 19 10 27 14 S 1021,3 3,3 0 0,0
20.02.2019 01:00:00 4,8 4,5 3,6 7,2 7,8 16 9 24 13 SSW 1021,3 4,1 0 0,0
20.02.2019 00:00:00 5,3 4,7 4,6 7,2 7,8 18 10 28 15 S 1021,3 6 0 0,0
19.02.2019 23:00:00 5,4 5,0 3,1 7,3 7,8 16 8 23 12 S 1021,4 8 0 0,0
19.02.2019 22:00:00 4,3 4,0 3,0 7,4 7,8 14 8 21 11 S 1021,6 4,6 0 0,0
19.02.2019 21:00:00 4,7 4,3 3,9 7,4 7,8 15 8 24 13 S 1021,4 5 0 0,0
19.02.2019 20:00:00 5,1 4,4 3,4 7,4 7,8 13 7 18 10 S 1021,5 10 0 0,0
19.02.2019 19:00:00 5,3 2,5 4,1 7,4 7,8 13 7 20 11 SSW 1021,3 55 0 0,0
19.02.2019 18:00:00 7,1 2,0 6,8 7,3 7,8 13 7 27 14 SW 1020,9 35 54 0,0
19.02.2019 17:00:00 9,2 1,6 10,7 7,2 7,8 16 9 29 16 SW 1021,0 56 55 0,0
19.02.2019 16:00:00 9,9 2,3 10,6 7,2 7,8 20 11 37 20 SW 1021,2 19 52 0,0
19.02.2019 15:00:00 10,3 3,3 9,8 7,1 7,8 18 10 32 18 SW 1021,3 56 34 0,0
19.02.2019 14:00:00 9,2 3,8 10,3 7,0 7,8 23 12 32 17 SW 1021,7 20 36 0,0
19.02.2019 13:00:00 8,9 5,6 8,6 6,9 7,8 18 10 29 16 SSW 1022,0 19 39 0,0
19.02.2019 12:00:00 7,1 6,7 8,1 6,9 7,8 18 10 27 15 SSW 1022,3 7 21 0,0
19.02.2019 11:00:00 8,2 6,7 11,2 6,9 7,8 12 7 18 10 SSW 1022,0 16 60 0,0
19.02.2019 10:00:00 6,9 6,3 4,6 7,0 7,8 12 7 19 11 SSW 1021,9 11 60 0,0
19.02.2019 09:00:00 3,3 3,2 0,3 7,0 7,8 11 6 17 9 SSW 1021,8 10 22 0,0
19.02.2019 08:00:00 2,3 1,6 0,1 7,1 7,8 11 6 17 9 SSW 1021,1 11 0 0,0
19.02.2019 07:00:00 4,0 3,3 1,9 7,1 7,8 14 8 17 9 WSW 1020,8 15 0 0,0
19.02.2019 06:00:00 3,9 3,5 2,2 7,2 7,8 13 7 17 9 WSW 1020,6 13 0 0,0
19.02.2019 05:00:00 4,5 3,5 2,9 7,2 7,8 13 7 19 10 WSW 1020,5 14 0 0,0
19.02.2019 04:00:00 4,8 3,8 3,1 7,3 7,7 16 8 22 12 W 1020,5 17 0 0,0
19.02.2019 03:00:00 5,1 4,4 3,1 7,3 7,7 17 9 22 12 W 1020,3 15 0 0,0
19.02.2019 02:00:00 4,7 4,3 2,8 7,4 7,8 15 8 20 11 WSW 1020,1 14 0 0,0
19.02.2019 01:00:00 5,1 4,5 3,4 7,4 7,7 15 8 20 11 WSW 1019,7 12 0 0,0
19.02.2019 00:00:00 5,0 4,7 3,6 7,5 7,7 13 7 22 12 WSW 1019,7 10 0 0,0
18.02.2019 23:00:00 6,0 5,9 4,7 7,5 7,7 16 9 22 12 WSW 1019,5 8 0 0,0
18.02.2019 22:00:00 6,1 5,5 5,2 7,5 7,7 15 8 24 13 WSW 1018,9 11 0 0,0
18.02.2019 21:00:00 6,0 5,4 5,2 7,5 7,7 16 9 30 16 SW 1018,4 20 0 0,0
18.02.2019 20:00:00 6,7 6,0 5,8 7,6 7,7 20 11 28 15 SW 1017,8 39 0 0,0
18.02.2019 19:00:00 6,7 5,5 5,9 7,6 7,7 16 9 26 14 SW 1017,5 59 0 0,0
18.02.2019 18:00:00 7,6 6,1 7,1 7,5 7,7 18 10 29 16 SW 1016,9 60 7 0,0
18.02.2019 17:00:00 8,3 6,8 8,0 7,5 7,7 11 6 17 9 SW 1016,7 59 0 0,0
18.02.2019 16:00:00 7,8 6,6 7,1 7,5 7,7 12 6 18 10 S 1016,3 60 0 0,2
18.02.2019 15:00:00 7,6 6,2 7,1 7,5 7,7 12 7 22 12 SW 1016,6 31 0 0,4
18.02.2019 14:00:00 8,4 6,7 8,2 7,4 7,7 19 10 25 13 W 1016,9 17 0 0,0
18.02.2019 13:00:00 9,0 6,6 9,4 7,4 7,7 13 7 21 11 W 1017,0 19 0 0,0
18.02.2019 12:00:00 8,6 7,4 8,8 7,4 7,7 13 7 19 11 WSW 1017,3 13 0 0,0
18.02.2019 11:00:00 8,2 7,8 8,3 7,4 7,7 13 7 23 12 SSW 1017,3 4,9 0 0,0
18.02.2019 10:00:00 7,8 7,7 7,5 7,4 7,7 14 7 24 13 S 1017,2 0,9 0 0,0
18.02.2019 09:00:00 7,9 6,8 6,5 7,4 7,7 20 11 25 14 W 1016,3 15 0 0,0
18.02.2019 08:00:00 6,8 6,7 5,5 7,5 7,7 10 5 18 10 SSW 1016,8 3,0 0 0,0
18.02.2019 07:00:00 6,2 6,1 5,2 7,5 7,7 13 7 21 11 SSW 1016,7 4,2 0 0,0
18.02.2019 06:00:00 6,5 6,2 4,2 7,6 7,7 14 8 18 10 SSW 1016,8 12 0 0,0
18.02.2019 05:00:00 5,9 5,5 4,5 7,6 7,7 11 6 20 11 SSW 1016,9 8 0 0,0
18.02.2019 04:00:00 6,4 6,1 3,8 7,6 7,7 10 5 15 8 SSW 1017,4 7 0 0,0
18.02.2019 03:00:00 7,3 6,1 5,4 7,7 7,7 10 5 16 9 SSW 1017,7 15 0 0,0
18.02.2019 02:00:00 7,7 6,8 6,4 7,7 7,7 12 6 18 10 SSW 1017,9 10 0 0,0
18.02.2019 01:00:00 8,8 7,6 7,6 7,7 7,7 9 5 18 10 SSW 1017,9 8 0 0,0
18.02.2019 00:00:00 10,1 8,9 9,9 7,7 7,7 12 6 23 13 SSW 1017,8 10 0 0,0
17.02.2019 23:00:00 10,5 8,9 10,3 7,6 7,7 19 10 32 18 SSW 1017,7 11 0 0,0
17.02.2019 22:00:00 10,9 8,8 10,5 7,6 7,7 19 10 29 15 SW 1017,3 14 0 0,0
17.02.2019 21:00:00 10,8 8,9 10,4 7,6 7,7 8 4 21 11 S 1017,0 12 0 0,0
17.02.2019 20:00:00 11,3 8,9 10,9 7,5 7,6 13 7 21 12 S 1016,7 15 0 0,0
17.02.2019 19:00:00 11,4 9,0 10,7 7,5 7,7 12 6 25 14 S 1016,6 14 0 0,0
17.02.2019 18:00:00 11,5 8,7 11,2 7,4 7,7 15 8 29 16 S 1016,2 17 19 0,0
17.02.2019 17:00:00 11,9 8,6 12,2 7,3 7,7 21 11 44 24 S 1016,3 18 14 0,0
17.02.2019 16:00:00 12,2 8,7 13,4 7,2 7,7 26 14 40 21 SSW 1016,5 19 43 0,0
17.02.2019 15:00:00 12,7 8,4 14,6 7,1 7,7 25 14 39 21 SW 1016,5 20 36 0,0
17.02.2019 14:00:00 13,5 8,5 15,7 7,0 7,7 24 13 37 20 SW 1016,4 18 60 0,0
17.02.2019 13:00:00 12,9 7,6 14,7 6,9 7,6 23 12 44 24 SSW 1016,5 18 60 0,0
17.02.2019 12:00:00 11,4 6,7 13,1 6,9 7,7 26 14 45 25 SSW 1016,6 18 60 0,0
17.02.2019 11:00:00 10,0 6,0 11,2 6,9 7,7 29 16 51 27 SSW 1016,3 19 60 0,0
17.02.2019 10:00:00 8,8 5,0 6,9 6,9 7,6 32 17 44 24 S 1015,7 20 39 0,0
17.02.2019 09:00:00 6,5 3,3 5,6 6,9 7,7 26 14 39 21 S 1015,7 19 0 0,0
17.02.2019 08:00:00 6,5 3,3 5,1 7,0 7,6 26 14 35 19 S 1015,7 20 0 0,0
17.02.2019 07:00:00 6,5 3,3 5,4 7,0 7,7 18 10 28 15 S 1016,0 18 0 0,0
17.02.2019 06:00:00 7,0 3,4 5,6 7,0 7,6 17 9 26 14 S 1016,5 19 0 0,0
17.02.2019 05:00:00 7,2 4,3 5,3 7,1 7,6 15 8 24 13 S 1016,6 16 0 0,0
17.02.2019 04:00:00 6,5 4,7 5,2 7,1 7,6 14 8 24 13 S 1018,0 10 0 0,0
17.02.2019 03:00:00 6,4 4,6 5,2 7,1 7,6 17 9 23 13 S 1019,0 9 0 0,0
17.02.2019 02:00:00 7,2 5,2 6,0 7,1 7,6 19 10 30 16 S 1019,6 10 0 0,0
17.02.2019 01:00:00 7,8 5,6 6,2 7,2 7,6 18 10 26 14 S 1020,3 9 0 0,0
17.02.2019 00:00:00 7,6 5,7 6,0 7,2 7,7 17 9 23 12 S 1020,8 8 0 0,0
16.02.2019 23:00:00 7,5 6,0 6,2 7,2 7,6 17 9 24 13 S 1021,2 8 0 0,0
16.02.2019 22:00:00 7,8 6,7 6,9 7,2 7,7 15 8 23 12 SSE 1021,8 8 0 0,0

tt = temperature
td = dewpoint
tt 5cm = temperature 5cm
tt -20cm = temperature -20cm
tt -100cm = temperature -100cm
ff = wind speed
fx = gusts
dd = wind direction
ppp = reduced air pressure
vv = visibility
sd = sunshine duration
rr = precipitation

Next stations